Terug naar catalogus

STARLINK-37037

ActiefCommunicatieVLEO
NORAD 68084·PAYLOAD·🇺🇸 United States

Gelanceerd Mar 4, 2026 vanaf Vandenberg Space Force Base

Loading…

Volgende Passages (komende 24 uur)

TLE

VersSource: CelesTrak SupGP

Epoch: Sep 14, 2026, 23:29 UTC

1 68084C 26042R   26257.97895833 -.00010208  00000+0 -30176-3 0  2573
2 68084  53.1598  15.3343 0001274  83.8658 316.9323 15.34380603    11

Volg STARLINK-37037 in realtime met AllMySat

Download on the App Store